Temp
27 27 27 26 26 26 25 25 25 25 24 24 25 25 25 25 25 24 24 25 25 26 26 26 26 26 27 28 29 29 29 29 30 30 29 29 28 28 27 27 27 28 29
27 27 26 27 26 26 26 25 25 24 24 24 25 24 25 25 25 25 25 26 26 25 26 26 26 27 26 26 27 28 28 27 27 27 28 28 29 29 28 27 28 29 29
26 26 26 26 26 26 26 26 25 25 25 25 25 25 25 25 25 24 24 25 25 25 26 26 26 26 25 25 25 26 28 28 27 28 27 28 29 29 29 29 29 29 30
24 24 25 25 26 26 26 26 26 25 25 25 25 25 25 25 26 25 25 25 25 26 26 26 26 26 26 25 26 26 26 25 27 27 28 29 30 30 29 29 29 30 29
22 22 22 23 24 25 25 25 25 25 25 25 25 25 25 25 25 25 25 26 26 26 26 26 26 26 25 25 24 25 24 25 27 27 28 29 29 27 28 28 29 29 28
20 20 20 22 22 22 22 23 23 25 24 25 25 26 26 22 23 25 25 25 26 25 26 26 26 24 24 24 23 23 23 22 23 24 26 27 26 26 26 26 26 26 26
20 19 19 19 19 19 19 21 22 23 23 22 22 20 19 20 21 23 23 23 24 24 23 22 23 21 21 21 22 23 24 23 23 22 22 24 23 23 22 22 23 24 24
19 19 18 18 18 18 19 18 20 21 21 20 19 18 18 18 19 20 22 21 20 20 20 20 20 19 20 20 21 23 24 24 24 22 22 22 22 22 21 22 22 22 24
18 18 18 18 18 17 17 17 18 19 18 18 18 16 15 18 19 20 22 22 21 20 18 19 19 18 19 20 20 21 21 22 23 22 22 22 22 22 22 21 24 22 22
15 16 17 16 16 17 18 18 18 17 16 17 16 15 15 17 18 20 21 23 22 22 20 19 19 18 18 19 18 19 20 20 20 20 21 23 24 23 22 21 21 22 22
13 14 16 16 17 17 17 17 15 15 14 15 15 15 15 15 17 18 19 19 19 21 23 21 18 18 18 18 18 18 18 20 20 21 25 25 23 23 23 22 21 21 22
13 14 15 16 17 17 16 16 14 14 14 15 15 16 15 14 15 16 17 17 17 17 17 18 17 17 18 18 18 18 19 20 21 23 24 23 23 22 22 21 21 21 21
13 13 14 15 15 16 16 16 15 16 17 18 19 18 17 15 13 13 14 16 16 16 15 16 16 17 17 18 18 18 19 21 21 20 21 21 21 21 20 21 21 21 21
14 14 15 15 16 17 18 18 18 19 18 18 18 18 16 15 13 12 12 13 13 14 13 15 16 17 18 17 18 19 19 18 18 19 19 19 19 19 20 20 20 20 20
15 15 16 15 16 12 13 14 13 13 13 17 16 16 15 15 10 12 12 11 11 12 14 16 15 16 16 16 15 16 16 16 16 15 16 17 18 18 18 18 17 18 19
16 17 18 17 16 14 12 9 9 10 12 12 12 12 11 11 11 11 11 12 13 13 15 16 15 15 15 15 15 14 14 13 12 13 14 14 15 15 15 15 16 16 17
17 16 17 18 17 16 14 13 11 8 10 10 10 10 10 11 11 11 11 12 13 14 16 15 15 14 13 13 13 13 12 12 12 12 11 11 12 13 13 13 14 14 14
15 15 17 17 17 17 16 16 15 14 13 10 9 8 9 10 10 10 11 13 14 15 14 14 14 13 13 12 12 12 12 11 11 11 11 11 11 11 11 11 11 11 11
14 15 16 17 17 16 16 16 17 16 16 14 11 9 9 10 10 11 12 14 14 14 13 13 12 12 11 11 10 10 10 10 10 10 10 10 10 10 10 9 9 8 8
13 14 15 16 15 15 16 16 16 16 16 15 15 14 13 11 13 13 12 12 13 12 12 12 11 10 9 9 8 8 8 9 9 8 8 8 8 7 7 8 8 8 7
14 12 12 13 14 16 16 16 16 16 15 15 14 10 11 12 14 13 13 12 12 11 10 10 9 8 8 8 7 8 8 8 7 7 6 6 5 5 5 5 6 6 6
14 13 12 14 15 15 15 15 15 15 16 15 14 10 10 10 13 13 12 11 11 10 9 8 8 8 7 6 6 6 6 6 5 5 4 3 3 3 3 4 4 4 5
15 14 14 14 15 14 14 15 15 15 15 15 15 14 12 13 13 12 12 11 10 10 9 9 8 8 7 6 5 4 4 3 3 2 1 0 0 1 1 2 2 3 3
14 14 14 14 14 14 14 14 14 14 15 15 14 14 13 13 13 12 11 11 11 10 10 9 9 8 7 6 6 6 5 3 1 0 -0 -0 -1 -1 -0 0 0 1 1
14 15 15 15 15 14 14 14 14 14 14 14 14 14 14 13 13 12 12 11 11 10 10 9 9 8 7 7 6 5 4 3 1 0 -1 -1 -0 -0 -0 0 0 -0 0
13 13 14 14 14 14 14 14 14 14 14 14 14 14 13 13 13 12 12 11 11 10 10 9 9 8 7 6 6 4 3 2 2 1 -0 -1 -0 -0 0 -0 -0 -0 0
Height
843 847 850 853 855 857 859 860 860 859 861 865 867 869 870 871 872 873 873 874 874 875 874 874 874 875 874 871 869 867 867 866 863 861 861 861 859 857 856 854 851 845 841
841 844 847 849 852 854 857 859 859 861 862 864 866 867 869 869 871 872 872 871 872 874 873 873 873 872 873 872 871 869 868 868 867 865 862 859 856 854 852 850 847 844 841
839 842 844 845 849 851 853 856 858 859 861 862 863 865 866 867 867 869 870 870 871 871 871 870 871 871 872 872 870 869 867 866 865 862 861 857 853 849 847 845 844 843 838
835 839 841 844 845 847 849 852 854 858 859 860 861 862 863 864 865 867 868 869 869 869 870 870 870 870 870 870 871 870 868 868 864 862 858 854 850 846 846 846 843 840 838
832 837 840 841 843 843 845 849 851 854 856 857 859 860 861 862 860 862 864 866 867 867 867 868 867 867 867 869 869 868 868 867 863 860 856 854 850 850 849 847 843 839 838
832 833 836 839 840 842 844 846 849 851 853 854 856 857 858 858 858 861 864 866 864 866 865 865 866 865 866 865 865 865 866 866 865 864 860 856 855 854 850 847 845 842 838
831 835 836 839 840 841 842 847 848 850 852 855 856 856 857 856 858 859 861 863 865 865 866 865 866 865 865 865 864 862 862 862 861 861 860 857 855 854 852 848 847 843 838
831 837 836 840 842 842 843 847 846 851 851 855 857 858 859 858 859 859 860 861 863 865 865 865 866 866 864 864 863 862 860 859 858 858 856 855 854 852 849 847 844 841 836
831 836 838 842 844 847 849 849 851 853 853 854 861 861 861 859 860 859 860 863 864 865 866 866 867 865 865 864 863 862 860 859 857 855 853 851 849 848 845 844 841 839 835
835 837 839 842 846 848 850 851 853 856 856 858 861 862 863 862 862 861 860 862 866 866 867 867 867 867 865 864 863 863 861 859 856 854 850 848 846 845 844 845 844 840 837
837 840 843 846 848 849 851 852 854 856 858 860 861 863 864 865 865 864 864 863 866 866 867 869 868 867 866 865 863 863 861 859 855 852 849 846 846 846 845 845 844 842 839
842 844 846 847 851 851 853 855 858 860 860 862 863 868 867 868 867 868 866 867 869 869 870 870 869 867 866 866 864 863 860 856 855 852 850 850 848 847 846 845 843 843 841
847 848 852 852 854 854 856 858 861 862 862 863 864 867 870 871 873 870 868 868 869 872 872 870 868 865 866 864 865 864 860 857 854 855 853 853 853 851 848 844 842 841 839
850 852 854 854 856 855 857 859 860 862 864 866 868 870 872 873 871 869 869 871 872 873 870 870 868 867 866 866 865 863 862 861 859 857 857 856 854 852 849 846 843 840 837
852 852 854 855 857 859 858 862 864 865 866 866 869 872 871 872 871 870 870 870 872 872 869 871 869 869 868 868 867 867 865 864 863 861 861 859 855 852 851 849 846 842 838
851 852 852 854 858 861 864 867 867 866 867 869 871 874 874 873 871 871 871 871 869 872 872 872 872 872 872 870 870 870 869 868 868 865 863 861 860 856 852 851 847 844 839
850 853 854 854 856 859 862 866 867 869 870 871 872 874 874 872 872 872 873 872 871 869 872 874 874 873 874 872 872 872 871 870 869 867 865 863 860 857 854 851 848 846 843
855 856 856 856 858 859 860 862 865 868 870 873 875 875 873 872 873 873 873 871 873 872 875 876 875 876 874 874 873 873 872 871 869 868 866 864 862 859 856 853 850 848 845
852 858 859 858 860 861 861 861 862 865 867 873 875 874 874 876 875 874 873 875 874 875 878 878 878 877 876 876 877 874 873 872 870 868 866 865 862 859 856 854 850 848 847
850 855 858 862 864 865 862 863 865 867 868 869 870 872 873 873 873 874 876 877 876 878 879 879 879 878 877 877 874 873 873 871 869 868 867 866 863 860 857 854 851 846 843
854 856 861 865 864 864 861 862 866 866 867 868 871 873 872 873 873 873 874 877 878 879 879 880 879 878 877 875 875 874 872 871 870 869 868 865 863 861 859 856 852 847 843
854 858 860 861 862 861 861 862 862 865 866 866 869 873 873 873 872 873 875 876 878 878 878 878 878 877 876 876 875 873 872 870 869 868 866 864 862 860 858 854 849 844 840
851 853 856 857 857 859 860 860 862 863 864 864 866 868 870 869 870 871 873 875 876 876 877 877 876 875 875 874 873 871 871 870 869 868 866 864 861 858 854 849 845 841 837
848 849 850 853 854 855 857 859 859 861 861 860 862 864 866 866 867 869 872 872 873 873 874 873 873 873 872 871 870 869 868 868 867 864 862 859 855 852 848 845 842 837 832
842 844 845 846 848 852 853 853 853 854 856 858 858 861 861 862 864 865 867 868 869 870 870 870 870 870 869 867 867 866 863 862 861 858 855 853 850 846 843 838 834 829 823
838 839 840 842 843 844 845 848 849 849 850 852 854 856 857 858 859 860 862 864 865 866 866 866 866 866 865 864 863 862 861 858 855 853 850 846 843 839 835 831 826 821 816
Wind_Speed
17 16 14 13 11 10 9 7 4 3 4 5 8 9 8 9 9 8 10 3 6 8 9 7 7 9 10 13 12 10 10 12 13 15 17 17 19 12 14 13 18 20 18
15 18 17 15 12 12 11 9 6 5 7 8 8 9 10 11 11 10 10 8 8 8 10 8 8 9 8 10 9 11 11 12 12 12 15 14 13 11 10 12 14 15 18
15 15 17 17 16 14 13 11 9 9 8 9 9 9 11 10 10 12 10 8 7 10 9 7 8 8 6 11 10 11 13 10 10 14 16 14 15 15 10 14 12 14 18
9 9 14 15 18 17 15 13 13 12 10 10 10 10 10 10 10 11 10 10 9 9 8 8 9 8 9 8 10 9 12 12 12 14 15 16 15 13 14 17 19 18 20
15 13 13 16 19 15 14 13 14 14 12 11 10 11 10 11 9 11 8 10 10 9 10 8 11 11 10 9 10 12 12 13 16 17 17 17 17 20 18 17 20 20 22
8 11 13 15 14 15 14 14 13 12 10 10 11 11 10 5 11 11 10 9 7 10 8 8 7 4 5 7 6 10 12 12 13 15 19 19 19 18 19 19 20 20 19
11 10 12 9 14 13 11 8 10 9 7 5 4 7 6 5 3 8 9 8 9 6 5 4 4 5 2 5 8 11 11 12 15 17 17 18 19 17 18 18 18 20 23
12 13 13 14 10 9 9 4 10 8 7 8 10 9 7 4 2 1 4 6 6 5 4 5 4 5 6 9 10 10 9 10 12 9 11 15 16 19 20 20 22 23 23
15 13 12 12 11 9 11 10 6 5 9 17 9 9 8 9 5 5 10 6 7 8 9 8 7 6 8 9 8 9 10 10 10 16 17 16 12 12 11 13 14 16 17
10 11 11 11 11 9 10 10 10 9 12 12 10 8 10 10 6 6 10 6 3 5 5 5 8 8 9 10 9 11 12 12 14 15 12 12 11 11 10 8 15 15 17
14 10 10 10 10 9 10 11 11 13 15 13 11 10 9 9 10 8 7 9 7 5 2 2 5 7 8 8 8 8 11 15 17 15 13 11 15 13 11 15 16 15 18
14 14 13 10 7 8 11 12 10 12 15 13 12 8 8 7 10 8 8 8 6 7 7 6 7 9 10 8 8 12 10 10 13 12 13 12 14 14 16 17 16 14 17
14 14 12 13 11 11 11 11 9 7 8 8 7 7 6 5 4 7 8 5 3 4 7 7 8 9 9 8 12 9 10 10 11 13 15 13 15 16 17 16 17 18 20
11 10 10 10 10 9 8 7 7 4 5 5 4 4 3 2 5 8 8 8 6 5 5 5 6 7 4 7 9 11 11 12 11 12 13 14 15 16 17 17 19 19 22
9 9 9 10 9 8 12 9 6 5 6 4 3 2 1 2 3 6 7 5 5 5 6 5 8 9 9 10 11 12 13 13 14 14 15 17 16 16 17 18 19 20 20
8 9 9 9 10 10 10 10 10 10 5 6 7 7 4 4 4 7 11 10 11 8 7 7 9 9 9 10 10 12 13 15 14 14 14 15 17 17 17 19 19 19 21
5 5 5 6 9 10 10 9 10 11 11 9 8 6 5 6 8 10 9 13 10 6 4 6 7 7 8 9 10 11 12 12 13 14 16 17 18 18 21 20 20 20 21
4 4 5 4 6 7 8 9 10 9 8 6 9 9 10 11 9 8 5 4 4 8 7 7 7 8 8 10 11 11 12 13 14 15 15 16 17 18 19 20 21 22 24
9 3 2 3 3 4 6 6 6 7 7 9 5 3 4 7 9 11 10 5 5 6 5 5 6 7 8 9 9 11 12 13 14 15 16 17 18 19 19 19 21 22 25
6 5 4 4 4 7 6 6 6 6 7 7 6 4 5 1 2 4 4 4 4 4 3 4 5 6 7 7 9 11 12 13 14 15 16 17 18 20 22 23 24 26 26
8 8 11 7 9 9 7 7 8 8 9 8 6 2 5 2 3 3 2 2 2 2 3 4 4 5 6 7 9 10 11 13 13 14 16 17 19 21 21 23 24 25 26
11 11 13 14 13 10 11 11 9 10 8 8 9 5 4 4 3 2 1 1 1 1 2 3 4 5 6 7 9 11 12 12 13 15 16 18 19 21 22 24 25 27 27
14 14 14 14 13 11 9 10 11 11 10 9 8 9 6 6 4 4 3 3 3 4 4 4 5 6 7 7 9 9 11 12 13 14 16 17 19 21 23 25 25 27 27
16 16 16 16 14 14 15 16 15 14 12 12 11 9 9 7 6 6 6 6 5 5 5 6 6 8 8 9 9 10 10 10 11 14 15 18 20 21 24 26 27 28 29
20 20 20 20 19 19 19 18 18 17 16 15 13 13 11 10 10 9 8 8 8 7 7 7 8 9 9 10 11 11 13 16 19 15 15 17 22 25 26 26 26 28 29
23 23 20 17 18 19 20 20 21 19 19 18 17 15 13 12 11 10 9 10 10 10 9 10 9 11 12 12 12 14 18 18 17 19 21 21 22 24 25 26 28 30 31
Wind_Direction
192 188 191 197 198 199 206 216 236 283 214 203 201 210 212 213 219 229 268 235 224 252 265 287 273 277 276 287 310 298 292 290 298 311 324 311 327 303 316 322 326 314 330
196 193 197 204 199 199 208 213 207 204 187 198 211 221 223 232 222 220 228 254 236 252 252 252 265 265 237 263 280 267 289 294 286 291 278 293 307 299 299 294 309 327 323
202 206 217 200 199 207 205 212 210 211 201 211 215 224 221 223 226 224 230 238 234 236 254 261 250 259 269 283 306 313 301 302 313 302 324 296 293 295 291 307 317 335 320
190 223 230 210 215 215 206 209 210 220 217 224 218 222 228 232 213 215 218 228 232 241 240 244 265 269 276 266 280 294 284 294 291 279 278 300 307 338 360 341 315 323 340
225 235 234 233 226 223 194 206 211 210 216 220 217 224 219 231 214 221 225 218 230 247 249 253 250 251 271 283 284 296 312 295 301 315 315 317 319 342 329 313 316 332 320
190 210 218 226 218 207 189 189 195 198 207 211 219 219 217 216 238 222 223 254 255 244 264 271 262 221 292 274 275 278 277 283 292 298 302 308 313 316 309 313 312 319 312
154 162 164 149 144 133 137 170 159 162 168 173 175 145 131 204 274 232 226 240 265 258 266 262 271 339 342 316 299 296 301 297 286 280 286 290 306 312 316 312 310 307 304
149 171 157 163 158 144 133 97 104 108 106 110 98 80 73 63 83 191 173 130 114 90 67 65 71 34 357 344 340 321 311 303 300 299 293 300 303 300 303 298 297 295 299
148 147 157 174 165 167 170 167 148 117 109 104 100 89 71 74 96 114 120 123 108 103 90 90 70 46 24 8 4 345 337 330 321 322 308 308 322 319 311 298 319 336 321
103 147 158 155 145 143 159 153 153 139 125 136 120 93 78 73 88 113 90 85 109 124 123 61 42 38 33 26 22 5 350 342 329 320 321 320 317 347 346 307 334 338 340
103 104 115 123 132 135 145 138 128 139 139 128 131 128 106 83 70 72 66 84 65 12 37 113 21 6 9 11 12 354 340 332 328 314 322 338 355 349 359 1 347 337 326
102 102 95 101 121 124 108 110 123 131 128 125 117 123 98 74 47 43 62 69 69 46 359 349 325 332 341 348 348 332 333 332 320 334 334 340 345 342 338 336 332 332 323
98 93 91 94 98 108 108 117 122 144 150 151 155 135 111 90 35 31 30 27 22 292 290 325 352 7 355 10 347 352 357 348 0 348 346 342 336 328 327 329 328 327 324
119 122 120 115 109 108 121 135 133 138 157 165 158 166 163 72 27 22 21 16 351 359 333 0 13 3 357 4 2 9 8 11 357 349 348 336 330 334 333 335 332 331 326
150 145 144 134 124 90 89 92 82 81 50 148 92 44 1 106 5 48 56 54 27 28 43 40 39 34 31 24 16 10 15 13 7 356 341 337 337 337 333 335 331 325 327
152 162 153 142 146 132 121 104 102 100 124 131 126 128 108 113 82 75 74 80 81 71 48 41 39 31 26 18 18 10 13 11 356 349 345 338 333 331 332 329 332 328 327
115 117 152 165 154 150 144 139 122 96 101 112 123 131 120 86 93 97 106 79 59 57 66 55 48 39 29 20 15 9 0 356 349 352 348 341 339 336 339 331 328 324 320
99 147 169 159 174 168 165 157 150 148 137 104 93 94 82 76 89 92 49 66 57 56 45 41 33 25 20 13 7 0 356 351 350 345 341 338 339 336 331 330 325 323 320
129 147 274 163 180 177 169 170 169 158 152 150 147 111 85 82 77 70 60 60 63 59 42 37 28 22 16 8 360 356 351 348 345 343 341 338 335 332 327 321 317 316 312
133 137 171 218 203 197 180 189 185 183 175 170 164 141 169 224 153 105 78 63 62 57 40 29 21 18 13 4 359 353 347 346 344 342 339 335 333 331 326 323 320 317 312
179 179 184 221 218 211 196 194 205 201 190 191 163 214 190 235 158 127 95 81 55 34 20 14 10 5 0 356 349 343 340 338 337 336 333 331 329 325 320 315 313 311 309
193 194 199 217 215 201 210 213 207 218 206 197 173 170 171 214 183 168 179 259 298 322 333 348 348 346 343 342 340 336 335 333 333 332 329 324 320 315 313 311 310 310 309
207 204 207 219 219 215 220 221 222 221 218 215 218 187 200 215 212 218 230 241 253 270 276 288 302 311 313 315 319 321 319 318 317 317 314 311 307 305 306 305 305 305 303
214 218 219 217 222 221 219 222 225 224 230 219 221 223 228 227 233 229 245 247 256 263 273 280 291 296 293 301 304 303 301 292 302 310 306 302 301 300 299 296 294 295 297
231 225 224 222 218 217 229 226 226 229 224 231 241 235 232 228 232 241 248 252 255 262 275 282 288 293 296 297 296 297 281 286 301 309 315 305 302 299 297 296 293 292 289
225 236 243 239 230 228 224 229 230 232 228 226 225 232 238 243 243 248 251 257 258 263 270 286 291 299 300 301 291 276 294 304 322 324 313 308 303 299 299 298 297 293 288